Location: *
(40.7873°S, 98.7174°E)
Time: 22:30:33
(UTC+00:00)

Cosmos 192 - Pass Details

Date: 27 September 2022
Orbit: 701 x 711 km, 74.0° (Epoch: 05 December)

Event Time Altitude Azimuth Distance (km) Brightness Sun altitude
Rises 20:37:23 0° 195° (SSW) 3,136 7.9 -27.5°
Reaches altitude 10° 20:39:48 10° 189° (S) 2,212 7.1 -27.1°
Maximum altitude 20:44:40 50° 113° (ESE) 916 5.2 -26.3°
Drops below altitude 10° 20:49:28 10° 38° (NE) 2,190 7.0 -25.5°
Sets 20:51:51 0° 32° (NNE) 3,103 7.7 -25.1°
